Location: Worcester
(42.2731°N, 71.8111°W)
Time: 19:30:31
(UTC-04:00)

Hubble Space Telescope - Visible Passes

Search period start: 18 September 2018 00:00
Search period end: 28 September 2018 00:00
Orbit: 537 x 541 km, 28.5° (Epoch: 17 September)

Date Brightness Start Highest point End Pass type
(mag) Time Alt. Az. Time Alt. Az. Time Alt. Az.
18 Sep 3.2 20:38:04 10° SSW 20:38:28 11° S 20:38:28 11° S visible
19 Sep 3.1 20:27:23 10° SSW 20:28:40 12° S 20:28:40 12° S visible
20 Sep 3.0 20:16:49 10° SSW 20:18:22 12° S 20:18:51 12° S visible
21 Sep 3.1 20:06:22 10° SSW 20:07:50 12° S 20:09:00 11° SSE visible
22 Sep 3.2 19:56:03 10° SSW 19:57:18 11° S 19:58:33 10° SSE visible
23 Sep 3.3 19:45:57 10° SSW 19:46:46 10° S 19:47:34 10° S visible
